Regional Weather Roundup
Issued by NWS

Home | Current Version | Previous Version | Graphics & Text | Print | Product List | Glossary On
Versions: 1 2 3 4 5 6 7 8 9 10 11 12 13 14 15 16 17 18 19 20 21 22 23 24 25 26 27
000
ASUS45 KTFX 231110
RWRMT
MONTANA REGIONAL WEATHER ROUNDUP
NATIONAL WEATHER SERVICE GREAT FALLS MT
500 AM MDT SUN JUL 23 2017

NOTE: "FAIR" INDICATES FEW OR NO CLOUDS BELOW 12000 FEET WITH NO
SIGNIFICANT WEATHER AND/OR OBSTRUCTIONS TO VISIBILITY.

MTZ001>007-043-231200-
WEST OF THE DIVIDE

CITY           SKY/WX    TMP DP  RH WIND       PRES   REMARKS
KALISPELL      CLEAR     50  47  89 N3        30.06S
MISSOULA       CLEAR     61  46  57 CALM      30.10S
BUTTE          CLEAR     50  38  63 SE6       30.23S
MULLAN PASS    CLEAR     62  40  44 W3        30.23S
ANACONDA         N/A     54  39  58 SW5       30.19F
DEER LODGE       N/A     48  43  81 CALM      30.20S
EUREKA           N/A     59  46  63 MISG      30.04S
HAMILTON         N/A     59  43  55 CALM      30.12S
LIBBY            N/A     54  46  76 CALM      30.05S
$$

MTZ008-052>055-231200-
SOUTHWEST MONTANA

CITY           SKY/WX    TMP DP  RH WIND       PRES   REMARKS
BOZEMAN        CLEAR     50  40  68 SE5       30.16R
DILLON         CLEAR     53  35  50 S13       30.19S
W YELLOWSTONE  CLOUDY    37  34  87 CALM      30.31R
ENNIS          CLEAR     48  32  53 N7        30.25S
THREE FORKS      N/A     49  43  80 CALM      30.13R
$$

MTZ009-010-012-014-046-048-049-054-231200-
EAST SLOPES AND CENTRAL MONTANA

CITY           SKY/WX    TMP DP  RH WIND       PRES   REMARKS
CUT BANK       CLEAR     58  44  60 NW7       30.07S
GREAT FALLS    CLEAR     59  40  49 CALM      30.07S
HELENA         CLEAR     63  43  48 CALM      30.11S
CHOTEAU          N/A     63  41  45 SW7       30.10S
$$

MTZ011-013-016-021-045-047-050-051-231200-
NORTH CENTRAL MONTANA

CITY           SKY/WX    TMP DP  RH WIND       PRES   REMARKS
HAVRE          CLEAR     58  43  57 CALM      29.99S
LEWISTOWN      CLEAR     53  39  59 SE7       30.11S
N BAR RANCH    CLOUDY    57  36  44 W8        30.16S
CHINOOK          N/A     61  46  59 CALM      29.98F
$$

MTZ017>020-022>027-061-062-231200-
NORTHEAST MONTANA

CITY           SKY/WX    TMP DP  RH WIND       PRES   REMARKS
GLASGOW        CLEAR     59  47  64 MISG      30.03S
JORDAN           N/A     60  43  53 E3        30.04S
SIDNEY         CLEAR     54  46  74 N6        30.06S
WOLF POINT     CLEAR     56  46  69 E5        30.05R
MALTA          CLOUDY    57  48  72 NE6       30.01S
PLENTYWOOD       N/A     57  54  88 CALM      30.06S
POPLAR           N/A     54  46  76 N3        30.05S
$$

MTZ028>42-056>058-231200-
SOUTHCENTRAL AND SOUTHEAST MONTANA

CITY           SKY/WX    TMP DP  RH WIND       PRES   REMARKS
BAKER          CLEAR     55  41  59 SE3       30.10S
BILLINGS       CLEAR     62  40  44 SW5       30.08S
LIVINGSTON     CLEAR     48  38  68 W3        30.16S
MILES CITY     CLEAR     63  43  48 CALM      30.06S
BIG TIMBER     MOCLDY    59  34  38 W10       30.16S
FORSYTH          N/A     61  39  44 CALM      30.05S
LAUREL           N/A     56  32  40 CALM      30.06F
$$

REGIONAL REPORTS...DAKOTAS

CITY           SKY/WX    TMP DP  RH WIND       PRES   REMARKS
WILLISTON      CLEAR     56  51  84 CALM      30.07R
MINOT          CLEAR     55  52  89 SW8       30.04S
DICKINSON      PTCLDY    54  51  90 CALM      30.08R
BEACH            N/A     54  50  87 S5        30.12R
CROSBY           N/A     55  55 100 S8        30.07R
TIOGA            N/A     50  50 100 CALM      30.10R
WATFORD CITY     N/A     52  50  93 CALM      30.07R
BISMARCK       CLEAR     58  55  90 W6        30.06R
GRAND FORKS    CLOUDY    63  60  90 N16       29.94R
FARGO          CLOUDY    62  60  93 NW12      29.94R
BUFFALO SD       N/A     61  47  59 NE5       30.04S
RAPID CITY     CLEAR     56  45  66 NW7       30.11S
$$

REGIONAL REPORTS...WYOMING/IDAHO/WASHINGTON

CITY           SKY/WX    TMP DP  RH WIND       PRES   REMARKS
GILLETTE       CLEAR     61  38  42 CALM      30.14R
SHERIDAN       CLEAR     54  42  64 N3        30.11R
BUFFALO WY     CLEAR     64  31  28 CALM      30.17S
CODY           CLEAR     63  35  35 SW8       30.18S
YELLOWSTONE LA   N/A     39  36  89 CALM      30.40S
IDAHO FALLS    CLOUDY    49  47  93 CALM      30.16R
BOISE          CLEAR     67  38  34 SE7       30.01S
SPOKANE        CLEAR     66  48  52 S8        30.02F
$$

REGIONAL REPORTS...ALBERTA

CITY           SKY/WX    TMP DP  RH WIND       PRES   REMARKS
EDMONTON       CLEAR     55  54  94 NE2       29.92S
CALGARY        MOCLDY    64  45  48 SW7       29.98F
LETHBRIDGE     CLEAR     57  48  72 SW9       30.00F
MEDICINE HAT   CLEAR     61  50  67 SW9       29.94S
WATERTON GATE    N/A     57  46  67 SW2         N/A
CARDSTON         N/A     61  46  59 SW8         N/A
MILK RIVER       N/A     55  46  71 NW7         N/A
$$

REGIONAL REPORTS...SASKATCHEWAN

CITY           SKY/WX    TMP DP  RH WIND       PRES   REMARKS
SWIFT CURRENT  CLOUDY    63  50  63 S14G63    29.99S
REGINA         PTCLDY    54  50  87 SE8       30.03R
SASKATOON      PTCLDY    57  55  94 S5        29.96F
CYPRESS HILLS    N/A     55  41  58 S3          N/A
VAL MARIE        N/A     48  45  87 E7          N/A
ROCKGLEN         N/A     55  48  76 S8          N/A
ASSINIBOIA       N/A     57  55  94 NW3         N/A
$$




USA.gov is the U.S. government's official web portal to all federal, state and local government web resources and services.